Regional Weather Roundup
Issued by NWS

Home | Current Version | Previous Version | Text Only | Print | Product List | Glossary Off
Versions: 1 2 3 4 5 6 7 8 9 10 11 12 13 14 15 16 17 18 19 20 21 22 23 24 25 26 27 28 29 30 31 32 33 34 35 36 37 38 39 40 41 42 43 44 45 46 47 48 49 50

000
ASUS43 KDMX 211107
RWRIA

WEATHER ROUNDUP FOR IOWA
NATIONAL WEATHER SERVICE DES MOINES IA
600 AM CDT MON JUL 21 2014

NOTE: "FAIR" INDICATES FEW OR NO CLOUDS BELOW 12,000 FEET WITH NO
SIGNIFICANT WEATHER AND/OR OBSTRUCTIONS TO VISIBILITY.

* - THESE STATIONS ARE NOT NWS STATIONS...THUS NOT UNDER NWS
QUALITY CONTROL.  THEY ALSO DO NOT REPORT WEATHER SUCH
AS PRECIPITATION OR FOG.

IAZ001>003-012>014-020>022-031>034-043>046-211200-
   NORTHWEST IOWA

CITY           SKY/WX    TMP DP  RH WIND       PRES   REMARKS
CARROLL *      CLEAR     72  68  88 S8        29.88S
CHEROKEE *     CLEAR     72  70  94 S7        29.85S
DENISON *      CLEAR     72  68  88 S7G15     29.85S
LE MARS *      CLEAR     73  70  88 S9G17     29.82S
ORANGE CITY *  CLEAR     73  68  83 SE6       29.84S
SHELDON *      CLEAR     70  68  94 SE7       29.84R
SIOUX CITY     CLEAR     73  70  90 SE7       29.82R
SPENCER        CLEAR     69  67  93 SE8       29.87R
STORM LAKE *   CLEAR     68  68 100 S8        29.88S
$$

IAZ055>058-069>071-079>083-090>094-211200-
   SOUTHWEST IOWA

CITY           SKY/WX    TMP DP  RH WIND       PRES   REMARKS
ATLANTIC *     CLEAR     72  68  88 S12       29.88S
AUDUBON *      CLEAR     73  70  88 S8        29.90S
CLARINDA *     CLEAR     72  68  88 S9        29.92S
COUNCIL BLFS *   N/A     70  70 100 S13       29.86R
CRESTON *      CLEAR     70  66  88 S9G15     29.94R
HARLAN  *      CLEAR     72  68  88 MISG      29.91S
LAMONI         PTCLDY    68  65  90 S9        29.96R
RED OAK *      CLEAR     72  68  88 S10       29.89S
SHENANDOAH *   CLEAR     73  68  83 S14       29.89S
$$

IAZ047>049-059>061-072>074-084-211200-
   CENTRAL IOWA

CITY           SKY/WX    TMP DP  RH WIND       PRES   REMARKS
AMES           CLEAR     67  65  93 SE7       29.93R
ANKENY *       CLEAR     70  66  88 S6        29.93S
CHARITON *     MOCLDY    70  64  83 S9        29.96S
DES MOINES     CLEAR     71  65  81 SE9       29.93R
GRINNELL*      CLEAR     66  63  88 SE7       29.98R
KNOXVILLE *    CLEAR     70  64  83 S10       29.95R
MARSHALLTOWN   PTCLDY    68  65  90 SE7       29.95R
PELLA *        CLEAR     68  64  88 SE6       29.98R
PERRY *          N/A     68  66  94 SE7       29.91S
$$

IAZ004>006-015-016-023>025-035-036-211200-
   NORTH CENTRAL IOWA

CITY           SKY/WX    TMP DP  RH WIND       PRES   REMARKS
ALGONA *       CLEAR     70  66  88 S10       29.90S
CLARION *      CLEAR     70  66  88 S12       29.92R
ESTHERVILLE    CLEAR     68  66  93 S9        29.88R
FORT DODGE *   CLEAR     70  64  83 S7        29.91R
MASON CITY     CLEAR     70  66  87 S9        29.94S
FOREST CITY *  CLEAR     68  66  94 SE3       29.92S
IOWA FALLS *   CLOUDY    70  64  83 SE5       29.95R
$$

IAZ007>011-017>019-026>030-037>042-050>054-066-211200-
   NORTHEAST IOWA

CITY           SKY/WX    TMP DP  RH WIND       PRES   REMARKS
CEDAR RAPIDS   CLEAR     67  59  75 S8        30.00R HAZE
CHARLES CITY * PTCLDY    68  64  88 S9        29.96R
DECORAH *      CLOUDY    68  64  88 SE6       29.98R
DUBUQUE        PTCLDY    64  62  93 S8        30.03R
MONTICELLO *   CLOUDY    64  63  94 SE6       30.01S FOG
OELWEIN *      MOCLDY    68  68 100 S10       29.99R
WATERLOO       CLOUDY    69  64  84 S10       29.95R
$$

IAZ064-065-067-068-078-211200-
   EAST CENTRAL IOWA

CITY           SKY/WX    TMP DP  RH WIND       PRES   REMARKS
DAVENPORT      CLEAR     65  60  84 S8        30.04R
IOWA CITY      CLEAR     65  63  93 SE3       30.02R
MT. PLEASANT * CLEAR     64  63  94 SE6       30.02S
MUSCATINE *    CLEAR     63  59  88 CALM      30.02S
QUAD CITIES    CLEAR     64  60  87 CALM      30.03R
$$

IAZ062-063-075>077-085>089-095>099-211200-
   SOUTHEAST IOWA

CITY           SKY/WX    TMP DP  RH WIND       PRES   REMARKS
BURLINGTON     CLEAR     65  62  90 S7        30.03R
FAIRFIELD *    CLEAR     66  63  88 SE8       30.01R
FORT MADISON * CLEAR     66  64  94 S5        30.04R
KEOKUK *       CLEAR     64  63  94 SE3       30.02S
OSKALOOSA *      N/A     66  64  94 S8        29.99R
OTTUMWA        CLEAR     68  63  84 S8        29.98R
WASHINGTON *   CLEAR     64  63  94 S6        30.01S FOG
$$

ABBREVIATIONS USED IN REMARKS
   TC - TEMPERATURES IN CELSIUS
  WCI - WIND CHILL INDEX
   HX - HEAT INDEX
  VSB - VISIBILITY
$$




USA.gov is the U.S. government's official web portal to all federal, state and local government web resources and services.